[[[{"header":{"parameterUnit":"kt","parameterCategory":2,"dx":1,"dy":1,"la1":30.253999710083008,"la2":30.299108505249023,"lo1":-89.0895004272461,"lo2":-89.04439544677734,"nx":28,"ny":28,"refTime":"2022-10-12T21:00:00:Z","depth":"0","parameterNumber":2,"parameterNumberName":"U-component_of_CURRENTS"},"data":[0.6113,0.6052,0.6056,0.5878,0.5826,0.5579,0.55,0.5385,0.5395,0.528,0.522,0.5345,0.5567,0.5455,0.5174,0.5039,0.4723,0.4409,0.4678,0.5181,0.5278,0.537,0.5098,0.4453,0.4452,0.3352,0.3344,0.3337,0.6199,0.6212,0.6217,0.6173,0.6094,0.616,0.614,0.6009,0.5983,0.6171,0.6266,0.625,0.6173,0.629,0.6151,0.5967,0.5691,0.5798,0.5276,0.5207,0.6107,0.5838,0.534,0.534,0.534,0.534,0.5341,0.5341,0.6382,0.6357,0.6405,0.6386,0.64,0.6362,0.6279,0.639,0.6457,0.6567,0.6895,0.6978,0.708,0.7398,0.7483,0.7166,0.7316,0.6871,0.6897,0.6756,0.6355,0.7323,0.7268,0.7275,0.7281,0.7287,0.7292,0,0.6493,0.6535,0.6555,0.656,0.6577,0.6574,0.6638,0.667,0.6884,0.7025,0.7234,0.741,0.7758,0.77,0.8039,0.8118,0.7765,0.8102,0.7957,0.6815,0.6478,0.6284,0.7368,0.737,0.7378,0.7384,0.7389,0.7392,0.6636,0.6642,0.6712,0.6712,0.673,0.6768,0.6793,0.6953,0.7006,0.7324,0.7384,0.7702,0.7868,0.8278,0.8361,0.8609,0.8433,0.828,0.8019,0.7784,0.775,0.7544,0.7367,0.748,0.7468,0.7459,0.7452,0,0.6706,0.6775,0.6781,0.6862,0.6883,0.6897,0.6986,0.7027,0.7201,0.7323,0.7396,0.7668,0.7928,0.8161,0.8435,0.8485,0.8424,0.875,0.8156,0.8089,0.7822,0.7784,0.7612,0.7406,0.8808,0.8807,0.8807,0,0.6831,0.6818,0.6918,0.6909,0.6924,0.7018,0.7048,0.7144,0.7281,0.7353,0.7541,0.7661,0.7852,0.8065,0.8214,0.8414,0.8501,0.844,0.8449,0.793,0.7877,0.7649,0.758,0.8555,0.8552,0.855,0.8548,0,0.69,0.6937,0.6949,0.6959,0.7038,0.7065,0.7117,0.7227,0.7285,0.7449,0.7523,0.7687,0.7786,0.7962,0.8142,0.8072,0.8416,0.8317,0.837,0.8366,0.7872,0.7815,0.7775,0.8545,0.8544,0.8543,0.8542,0,0.6975,0.7002,0.7016,0.7068,0.7072,0.7097,0.7175,0.7236,0.7364,0.7417,0.7525,0.7577,0.774,0.7724,0.7972,0.7877,0.7999,0.806,0.8072,0.7919,0.784,0.7584,0.7682,0.746,0.818,0.8176,0.8173,0,0.6991,0.7028,0.7074,0.7085,0.7093,0.7139,0.7201,0.726,0.7315,0.7386,0.747,0.7521,0.7532,0.7563,0.7672,0.7722,0.787,0.7714,0.7878,0.7884,0.7802,0.7999,0.7426,0.7646,0.8125,0.813,0.8133,0,0.701,0.7097,0.7079,0.7086,0.7117,0.7126,0.7205,0.7239,0.728,0.7334,0.7391,0.7457,0.7469,0.7468,0.7473,0.7564,0.7792,0.7538,0.7538,0.7686,0.8043,0.7945,0.7969,0.7773,0.7778,0.7782,0.8095,0,0.704,0.7064,0.7083,0.7102,0.7121,0.7121,0.7156,0.7189,0.7207,0.7211,0.7278,0.7275,0.7282,0.7314,0.7283,0.7422,0.7423,0.7359,0.7305,0.7426,0.7545,0.7575,0.7159,0.7156,0.7153,0.715,0,0,0.6981,0.7034,0.7064,0.7077,0.7079,0.7081,0.7079,0.7105,0.7083,0.7094,0.709,0.7098,0.7083,0.7146,0.7193,0.7161,0.7217,0.7159,0.7342,0.7364,0.7384,0.7504,0.7537,0.7145,0.7144,0.7143,0.7142,0,0.6972,0.7025,0.7056,0.7057,0.7067,0.7055,0.7068,0.7044,0.7055,0.7058,0.7026,0.705,0.7017,0.7031,0.703,0.7114,0.7127,0.7122,0.7222,0.7314,0.734,0.7362,0.7486,0.7518,0.7135,0.7135,0.7135,0,0.6923,0.6951,0.698,0.7015,0.7003,0.7008,0.6977,0.6991,0.701,0.6923,0.6937,0.6918,0.6879,0.6914,0.6924,0.6886,0.7044,0.6946,0.6959,0.6949,0.7039,0.7068,0.7094,0.6771,0.6771,0.677,0,0,0.6893,0.6942,0.6947,0.7006,0.7007,0.6977,0.6979,0.6966,0.6939,0.6925,0.6895,0.6867,0.6867,0.6865,0.684,0.6855,0.6872,0.6909,0.6926,0.6941,0.694,0.7032,0.7059,0.6768,0.6768,0.6768,0,0,0.6867,0.69,0.6902,0.6975,0.6971,0.6937,0.6954,0.6934,0.6901,0.6901,0.6848,0.6838,0.6866,0.6813,0.6794,0.6861,0.678,0.6782,0.6924,0.6944,0.696,0.697,0.6758,0,0,0,0,0,0.6837,0.6898,0.6901,0.6915,0.6938,0.6937,0.6932,0.692,0.6907,0.6913,0.6872,0.6851,0.6801,0.6782,0.677,0.6859,0.6745,0.6749,0.6753,0.6937,0.6959,0.6977,0,0,0,0,0,0,0.6842,0.6858,0.6899,0.6877,0.6883,0.6935,0.6904,0.6897,0.6907,0.6905,0.6855,0.6848,0.6809,0.6785,0.6775,0.6862,0.6761,0.6747,0.675,0.6753,0.6945,0.6963,0.6978,0,0,0,0,0,0.6846,0.6859,0.6919,0.6873,0.6878,0.6873,0.6903,0.6898,0.6892,0.6855,0.6847,0.6893,0.6809,0.68,0.6779,0.6869,0.6768,0.6764,0.6749,0.6752,0.6754,0.6953,0,0,0,0,0,0,0.6849,0.6812,0.6917,0.6916,0.6887,0.6869,0.6871,0.6899,0.6838,0.6834,0.6889,0.6888,0.6809,0.6802,0.6795,0.6877,0.6773,0.6769,0.6767,0.6751,0.6753,0.6755,0,0,0,0,0,0,0.6806,0.6811,0.6916,0.6934,0.6934,0.6865,0.6867,0.6831,0.6837,0.6871,0.6872,0.689,0.6834,0.6803,0.6798,0.6738,0.6777,0.6773,0.6771,0.677,0.6753,0.6755,0,0,0,0,0,0,0.6807,0.6811,0.6933,0.6933,0.6932,0.6902,0.6828,0.6854,0.686,0.6872,0.6863,0.6864,0.6836,0.6829,0.6799,0.6742,0.6739,0.6777,0.6774,0.6773,0.6772,0,0,0,0,0,0,0,0.6807,0.6801,0.6945,0.6932,0.6931,0.6908,0.6905,0.6903,0.686,0.6861,0.6863,0.6863,0.6796,0.6792,0.6788,0.6745,0,0,0.6777,0.6775,0,0,0,0,0,0,0,0,0.6797,0.68,0.6946,0.6946,0.6947,0.6907,0.6905,0.6903,0.6861,0.6861,0.6862,0.6863,0.6795,0.6792,0.6789,0,0,0,0,0,0,0,0,0,0,0,0,0,0,0,0.6946,0.6946,0,0.6907,0.6905,0.6904,0.6861,0.6861,0.6862,0.6863,0.6794,0.6791,0.6789,0,0,0,0,0,0,0,0,0,0,0,0,0,0,0,0,0,0,0,0,0,0,0,0,0,0,0,0,0,0,0,0,0,0,0,0,0,0,0,0,0,0,0,0,0,0,0,0,0,0,0,0,0,0,0,0,0,0,0,0,0,0,0,0,0,0,0,0,0]}],[{"header":{"parameterUnit":"kt","parameterCategory":2,"dx":1,"dy":1,"la1":30.253999710083008,"la2":30.299108505249023,"lo1":-89.0895004272461,"lo2":-89.04439544677734,"nx":28,"ny":28,"refTime":"2022-10-12T21:00:00:Z","depth":"0","parameterNumber":3,"parameterNumberName":"V-component_of_CURRENTS"},"data":[0.0415,0.0647,0.0735,0.1138,0.1322,0.1631,0.1838,0.217,0.2452,0.2857,0.2991,0.306,0.249,0.0656,-0.0674,-0.099,-0.1381,-0.1444,-0.1641,-0.1303,-0.1276,-0.125,-0.1357,-0.1525,-0.1526,-0.2174,-0.218,-0.2185,0.0284,0.0419,0.0633,0.0905,0.1147,0.1195,0.1541,0.1765,0.2211,0.2557,0.285,0.273,0.2103,0.133,0.0217,-0.0378,-0.0639,-0.0724,-0.0954,-0.1013,-0.0431,-0.0503,-0.0491,-0.0491,-0.0491,-0.049,-0.049,-0.049,0.0075,0.0218,0.0405,0.0619,0.0815,0.1067,0.1274,0.1525,0.1885,0.227,0.236,0.2572,0.2041,0.1361,0.0932,0.0062,0.0022,-0.0281,-0.0429,-0.0541,-0.0705,-0.0071,0.0047,0.0046,0.0046,0.0046,0.0046,0,-0.0104,-0.0017,0.013,0.0347,0.0523,0.0726,0.0936,0.113,0.1314,0.1577,0.1904,0.2015,0.1766,0.1457,0.0934,0.0626,-0.0106,0.0089,-0.0182,-0.0535,-0.0689,-0.0827,-0.0238,-0.0055,-0.0056,-0.0057,-0.0057,-0.0057,-0.0288,-0.0199,-0.0008,0.0107,0.0173,0.0363,0.0511,0.0615,0.0805,0.1091,0.1273,0.1318,0.1419,0.1146,0.0697,0.0368,0.0023,0.0082,-0.0147,-0.0403,-0.0604,-0.0754,-0.0847,-0.0067,-0.0066,-0.0065,-0.0064,0,-0.0354,-0.0353,-0.0199,-0.0089,-0.0045,0.0108,0.0296,0.0462,0.0553,0.0846,0.0906,0.0917,0.0882,0.0619,0.0434,0.0147,-0.0134,-0.0071,-0.0036,-0.0071,-0.0458,-0.0615,-0.0674,-0.0775,-0.0123,-0.0122,-0.0122,0,-0.0489,-0.0408,-0.0363,-0.0287,-0.0115,-0.0124,0.009,0.0138,0.029,0.0499,0.0388,0.057,0.0282,0.0255,0.0015,-0.0124,-0.0071,-0.0363,-0.0398,-0.0403,-0.0407,-0.0639,-0.0803,-0.0371,-0.0372,-0.0373,-0.0374,0,-0.0585,-0.053,-0.0441,-0.0417,-0.0338,-0.0271,-0.0217,-0.0134,-0.0021,0.0094,0.0213,0.0152,0.019,0.0047,-0.017,-0.0271,-0.0209,-0.0375,-0.0456,-0.0458,-0.0446,-0.0452,-0.0517,-0.0376,-0.0376,-0.0377,-0.0377,0,-0.0699,-0.0664,-0.0565,-0.0496,-0.047,-0.0405,-0.0285,-0.0231,-0.0148,-0.0121,-0.0107,-0.0143,-0.017,-0.0324,-0.0411,-0.0456,-0.0558,-0.0634,-0.0631,-0.0661,-0.0788,-0.0644,-0.0474,-0.0733,-0.0646,-0.0648,-0.0651,0,-0.0778,-0.0708,-0.0747,-0.0649,-0.0602,-0.0612,-0.0558,-0.0513,-0.0494,-0.0394,-0.0476,-0.0435,-0.0638,-0.0622,-0.0673,-0.0761,-0.0751,-0.084,-0.0817,-0.0814,-0.0832,-0.0678,-0.0664,-0.0515,-0.0681,-0.0678,-0.0676,0,-0.0848,-0.0865,-0.0853,-0.081,-0.0802,-0.075,-0.0728,-0.0672,-0.0597,-0.0636,-0.0536,-0.0696,-0.0713,-0.0768,-0.087,-0.0884,-0.0807,-0.0974,-0.0976,-0.0904,-0.071,-0.0721,-0.0701,-0.0873,-0.0869,-0.0866,-0.07,0,-0.0926,-0.0919,-0.0912,-0.0881,-0.0857,-0.0815,-0.0806,-0.0774,-0.0797,-0.0789,-0.0785,-0.0879,-0.0921,-0.0994,-0.1088,-0.1057,-0.1066,-0.1145,-0.1206,-0.111,-0.1052,-0.1032,-0.1299,-0.1301,-0.1303,-0.1305,0,0,-0.0971,-0.0976,-0.1,-0.097,-0.0956,-0.0964,-0.0911,-0.0901,-0.09,-0.0889,-0.0943,-0.1024,-0.1146,-0.1168,-0.1168,-0.1229,-0.1205,-0.1269,-0.1168,-0.1153,-0.1139,-0.1078,-0.1057,-0.1308,-0.1309,-0.131,-0.131,0,-0.1002,-0.1039,-0.1019,-0.0997,-0.0981,-0.0978,-0.0968,-0.0957,-0.0956,-0.0951,-0.1034,-0.1081,-0.1196,-0.1251,-0.1306,-0.1253,-0.1325,-0.1306,-0.1207,-0.1186,-0.1168,-0.1153,-0.1089,-0.1069,-0.1315,-0.1315,-0.1314,0,-0.1023,-0.1048,-0.1047,-0.1047,-0.1046,-0.1011,-0.1053,-0.1029,-0.1001,-0.1115,-0.1124,-0.1195,-0.1301,-0.1339,-0.1372,-0.1411,-0.1403,-0.1467,-0.1457,-0.1416,-0.1396,-0.1376,-0.1358,-0.1591,-0.1592,-0.1593,0,0,-0.1029,-0.1037,-0.1041,-0.1052,-0.1048,-0.1052,-0.1048,-0.1044,-0.1071,-0.1079,-0.1156,-0.1239,-0.1306,-0.136,-0.1418,-0.1465,-0.1456,-0.1497,-0.1484,-0.1473,-0.1426,-0.1404,-0.1384,-0.1595,-0.1595,-0.1595,0,0,-0.1034,-0.1062,-0.1069,-0.1092,-0.1067,-0.1077,-0.1074,-0.1081,-0.1098,-0.1118,-0.1234,-0.1262,-0.1313,-0.1384,-0.1395,-0.1477,-0.1532,-0.1532,-0.144,-0.1426,-0.1413,-0.1339,-0.1527,0,0,0,0,0,-0.1044,-0.1056,-0.1061,-0.1069,-0.1094,-0.1067,-0.1064,-0.1091,-0.1131,-0.1097,-0.1163,-0.1269,-0.1397,-0.141,-0.1438,-0.1465,-0.1624,-0.1619,-0.1614,-0.1506,-0.1489,-0.1475,0,0,0,0,0,0,-0.1048,-0.1057,-0.1061,-0.1079,-0.1086,-0.1068,-0.1128,-0.1132,-0.1134,-0.1139,-0.1245,-0.1272,-0.1349,-0.1406,-0.1429,-0.1452,-0.152,-0.1622,-0.1618,-0.1614,-0.15,-0.1486,-0.1474,0,0,0,0,0,-0.1051,-0.1058,-0.1102,-0.1078,-0.1083,-0.1116,-0.1129,-0.1134,-0.1125,-0.1246,-0.1268,-0.115,-0.1345,-0.1373,-0.142,-0.1439,-0.1505,-0.1513,-0.1619,-0.1616,-0.1613,-0.1493,0,0,0,0,0,0,-0.1053,-0.1037,-0.1103,-0.1104,-0.1102,-0.1115,-0.1121,-0.1134,-0.1234,-0.1252,-0.116,-0.1164,-0.1342,-0.1365,-0.1386,-0.1427,-0.1493,-0.1501,-0.1506,-0.1617,-0.1614,-0.1612,0,0,0,0,0,0,-0.1034,-0.1038,-0.1103,-0.1132,-0.1137,-0.1114,-0.112,-0.1198,-0.1241,-0.1143,-0.1148,-0.1162,-0.1376,-0.1358,-0.1375,-0.1489,-0.1483,-0.1491,-0.1497,-0.15,-0.1614,-0.1612,0,0,0,0,0,0,-0.1035,-0.1039,-0.1131,-0.1135,-0.1138,-0.1147,-0.1189,-0.1248,-0.1156,-0.1141,-0.1163,-0.1165,-0.1373,-0.1387,-0.1367,-0.1472,-0.1484,-0.1484,-0.1489,-0.1493,-0.1495,0,0,0,0,0,0,0,-0.1036,-0.1018,-0.1107,-0.1137,-0.114,-0.1119,-0.1118,-0.1117,-0.1157,-0.1159,-0.1162,-0.1164,-0.1439,-0.1447,-0.1456,-0.1459,0,0,-0.1483,-0.1487,0,0,0,0,0,0,0,0,-0.1016,-0.1018,-0.1107,-0.1108,-0.1109,-0.1119,-0.1118,-0.1117,-0.1157,-0.1159,-0.1161,-0.1163,-0.1441,-0.1448,-0.1455,0,0,0,0,0,0,0,0,0,0,0,0,0,0,0,-0.1107,-0.1108,0,-0.1119,-0.1118,-0.1117,-0.1157,-0.1159,-0.1161,-0.1162,-0.1443,-0.1449,-0.1455,0,0,0,0,0,0,0,0,0,0,0,0,0,0,0,0,0,0,0,0,0,0,0,0,0,0,0,0,0,0,0,0,0,0,0,0,0,0,0,0,0,0,0,0,0,0,0,0,0,0,0,0,0,0,0,0,0,0,0,0,0,0,0,0,0,0,0,0,0]}]],[[{"header":{"parameterUnit":"kt","parameterCategory":2,"dx":1,"dy":1,"la1":30.253999710083008,"la2":30.299108505249023,"lo1":-89.0895004272461,"lo2":-89.04439544677734,"nx":28,"ny":28,"refTime":"2022-10-12T21:00:00:Z","depth":"2","parameterNumber":2,"parameterNumberName":"U-component_of_CURRENTS"},"data":[0.5606,0.5583,0.5579,0.5491,0.5563,0.5398,0.5241,0.4904,0.4727,0.4303,0.4143,0.4244,0.4502,0.3754,0.3685,0.3429,0.3895,0.3303,0.4867,0.4981,0.5088,0.5415,0.5154,0,0,0,0,0,0.5643,0.5689,0.5815,0.5955,0.5923,0.6127,0.6014,0.5725,0.5446,0.5445,0.5342,0.4831,0.4599,0.4764,0.4433,0.44,0.4418,0.4279,0.4273,0.4401,0.4515,0.4254,0.3261,0.3256,0.325,0.3245,0,0,0.5818,0.5843,0.5996,0.6134,0.6265,0.627,0.6187,0.6164,0.6108,0.6005,0.6259,0.6136,0.6188,0.5831,0.5676,0.562,0.6091,0.5858,0.5906,0.5968,0.5777,0.5528,0.519,0.5197,0.5204,0.521,0.5215,0,0.5798,0.5917,0.6073,0.6258,0.638,0.6449,0.6552,0.6505,0.6668,0.6758,0.6834,0.6914,0.7049,0.6747,0.6738,0.6667,0.691,0.6642,0.7703,0.6434,0.6189,0.6093,0.6126,0.602,0.6033,0.6042,0.6049,0.6054,0.575,0.5841,0.6125,0.6221,0.6385,0.6548,0.6607,0.6805,0.6856,0.7169,0.7176,0.7447,0.7498,0.7633,0.7567,0.7537,0.7825,0.6947,0.682,0.7567,0.747,0.7454,0.7438,0.6192,0.6174,0.616,0.6148,0,0.5696,0.5842,0.6036,0.6296,0.6353,0.6509,0.6657,0.6811,0.7058,0.7225,0.7297,0.7597,0.777,0.7937,0.8125,0.8032,0.8052,0.7964,0.7261,0.7097,0.7508,0.7479,0.7651,0.764,0.7631,0.7623,0.7617,0,0.572,0.5826,0.6107,0.6171,0.6319,0.6396,0.6628,0.6875,0.7077,0.7206,0.7488,0.7613,0.7878,0.8006,0.8041,0.8002,0.8245,0.7879,0.7797,0.7286,0.7201,0.7949,0.7905,0.8324,0.8324,0.8323,0.8323,0,0.5947,0.5977,0.6079,0.5999,0.6213,0.6335,0.6471,0.6756,0.6858,0.7236,0.7346,0.7658,0.7757,0.793,0.7949,0.7928,0.8163,0.8096,0.7787,0.7754,0.7224,0.7128,0.8323,0.8323,0.8323,0.8323,0.8323,0,0.6033,0.6166,0.619,0.6325,0.6245,0.6349,0.6491,0.663,0.6958,0.7058,0.7317,0.7402,0.7624,0.7568,0.7831,0.776,0.7763,0.7767,0.7767,0.7381,0.714,0.6599,0.674,0.7595,0.759,0.7586,0.7582,0,0.6176,0.6267,0.6278,0.6292,0.6198,0.6141,0.6279,0.644,0.6599,0.685,0.696,0.7137,0.7142,0.7218,0.7384,0.74,0.7523,0.7395,0.7423,0.7421,0.7067,0.7345,0.6755,0.6709,0.7529,0.7535,0.7539,0,0.621,0.6354,0.6292,0.6286,0.6069,0.6094,0.6205,0.6278,0.6474,0.6613,0.681,0.6948,0.7033,0.7044,0.7037,0.7166,0.7404,0.7084,0.7085,0.7055,0.7656,0.7304,0.7304,0.7453,0.7462,0.7469,0.7496,0,0.6278,0.6328,0.6308,0.6199,0.6164,0.6049,0.6015,0.6158,0.6219,0.6299,0.6518,0.6551,0.6675,0.6682,0.6631,0.6879,0.6786,0.6746,0.6594,0.6854,0.6813,0.6848,0.636,0.6354,0.635,0.6346,0,0,0.6101,0.6217,0.6137,0.6085,0.5956,0.5938,0.5865,0.594,0.602,0.6097,0.6089,0.6281,0.6234,0.6388,0.6478,0.6425,0.6448,0.6346,0.6705,0.6746,0.6783,0.6761,0.6799,0.6338,0.6337,0.6335,0.6334,0,0.603,0.6026,0.6084,0.5972,0.5906,0.5872,0.5897,0.5847,0.5891,0.6004,0.6001,0.6122,0.611,0.6144,0.6139,0.6354,0.6225,0.6331,0.6513,0.6662,0.6708,0.6748,0.6736,0.6774,0.6323,0.6324,0.6324,0,0.5739,0.5765,0.5791,0.584,0.5763,0.5723,0.5685,0.5711,0.5785,0.5707,0.5836,0.5858,0.5815,0.5898,0.5931,0.5839,0.6031,0.5914,0.5937,0.5967,0.6112,0.6166,0.6213,0.5601,0.5599,0.5597,0,0,0.5603,0.5667,0.5597,0.5796,0.5706,0.5666,0.5689,0.5696,0.571,0.5737,0.5742,0.574,0.5766,0.5767,0.5761,0.5792,0.5778,0.5831,0.5865,0.5893,0.5938,0.609,0.6141,0.559,0.559,0.5589,0,0,0.5539,0.5473,0.5467,0.5657,0.5643,0.5589,0.5622,0.5647,0.5699,0.5699,0.5639,0.5633,0.574,0.5652,0.5577,0.5685,0.5542,0.5554,0.5731,0.5771,0.5805,0.5865,0.5391,0,0,0,0,0,0.5286,0.5454,0.5449,0.5477,0.5564,0.5576,0.5576,0.5596,0.5603,0.5661,0.5684,0.5558,0.5627,0.5557,0.5533,0.5597,0.5496,0.5513,0.5528,0.5766,0.581,0.5848,0,0,0,0,0,0,0.5296,0.5331,0.5442,0.5405,0.5424,0.5571,0.5527,0.553,0.5601,0.561,0.5562,0.5552,0.5472,0.5556,0.5537,0.5603,0.5397,0.5503,0.5517,0.5529,0.5781,0.5817,0.5849,0,0,0,0,0,0.5304,0.5331,0.5506,0.5399,0.5415,0.5449,0.5529,0.5532,0.5598,0.5502,0.5498,0.5632,0.5471,0.5456,0.5544,0.5616,0.5409,0.5402,0.5512,0.5523,0.5533,0.5799,0,0,0,0,0,0,0.531,0.5287,0.5506,0.5506,0.5428,0.5443,0.546,0.5534,0.5486,0.5486,0.5557,0.5562,0.5469,0.5458,0.5446,0.5631,0.5418,0.5412,0.5408,0.552,0.5529,0.5537,0,0,0,0,0,0,0.5272,0.5288,0.5505,0.5543,0.5547,0.5438,0.5453,0.538,0.5483,0.554,0.5546,0.556,0.5482,0.5459,0.545,0.5331,0.5426,0.5419,0.5415,0.5413,0.5527,0.5534,0,0,0,0,0,0,0.5276,0.529,0.5542,0.5545,0.5548,0.5543,0.5366,0.5451,0.5549,0.5539,0.5557,0.556,0.5482,0.5473,0.5452,0.5337,0.5332,0.5425,0.5421,0.5418,0.5416,0,0,0,0,0,0,0,0.528,0.522,0.5518,0.5547,0.555,0.5511,0.551,0.5508,0.5549,0.5553,0.5556,0.5559,0.5461,0.5454,0.5447,0.5341,0,0,0.5426,0.5423,0,0,0,0,0,0,0,0,0.5211,0.5218,0.5518,0.5519,0.552,0.5511,0.551,0.5509,0.555,0.5553,0.5555,0.5557,0.5459,0.5453,0.5448,0,0,0,0,0,0,0,0,0,0,0,0,0,0,0,0.5518,0.5519,0,0.5511,0.551,0.5509,0.555,0.5552,0.5555,0.5557,0.5457,0.5453,0.5448,0,0,0,0,0,0,0,0,0,0,0,0,0,0,0,0,0,0,0,0,0,0,0,0,0,0,0,0,0,0,0,0,0,0,0,0,0,0,0,0,0,0,0,0,0,0,0,0,0,0,0,0,0,0,0,0,0,0,0,0,0,0,0,0,0,0,0,0,0]}],[{"header":{"parameterUnit":"kt","parameterCategory":2,"dx":1,"dy":1,"la1":30.253999710083008,"la2":30.299108505249023,"lo1":-89.0895004272461,"lo2":-89.04439544677734,"nx":28,"ny":28,"refTime":"2022-10-12T21:00:00:Z","depth":"2","parameterNumber":3,"parameterNumberName":"V-component_of_CURRENTS"},"data":[0.1555,0.1656,0.1738,0.1983,0.2045,0.2173,0.2317,0.2497,0.263,0.2714,0.2637,0.248,0.1872,0.1242,0.0615,0.0156,0.0076,0.006,0.0125,0.0325,0.0338,-0.008,-0.0068,0,0,0,0,0,0.1543,0.1621,0.1684,0.1781,0.1908,0.1819,0.2071,0.2228,0.2617,0.2733,0.282,0.2302,0.1797,0.1216,0.0366,-0.0146,-0.0158,-0.0313,-0.0213,-0.0204,-0.0196,-0.0199,-0.0282,-0.0283,-0.0285,-0.0286,0,0,0.1544,0.1583,0.1645,0.1643,0.1674,0.1775,0.187,0.2077,0.2383,0.2627,0.2655,0.2545,0.2046,0.1136,0.0642,0.0067,0.0059,-0.0193,-0.0186,-0.018,-0.0184,-0.0169,-0.0261,-0.0262,-0.0262,-0.0263,-0.0263,0,0.1522,0.1527,0.1546,0.1547,0.1517,0.155,0.1579,0.1801,0.1965,0.2135,0.2355,0.2306,0.1878,0.1428,0.0748,0.0437,0.0097,-0.0005,0.0051,-0.0014,0.001,0.0012,0.002,-0.0051,-0.005,-0.005,-0.0049,-0.0049,0.1502,0.152,0.1483,0.1463,0.1367,0.1327,0.1349,0.1375,0.1537,0.1694,0.1859,0.1723,0.172,0.1277,0.0792,0.0336,0.0256,0.0032,-0.01,-0.0065,-0.0067,-0.0057,-0.0048,-0.0043,-0.0043,-0.0044,-0.0045,0,0.145,0.1472,0.1469,0.138,0.1317,0.1276,0.1275,0.1307,0.1316,0.1496,0.1505,0.148,0.1329,0.104,0.0744,0.0496,0.0231,0.0111,0.0201,0.0193,-0.0036,-0.003,-0.0133,-0.0136,-0.0138,-0.0141,-0.0142,0,0.139,0.1374,0.1297,0.1291,0.1287,0.1214,0.1216,0.1105,0.1167,0.1297,0.1117,0.1226,0.0944,0.0847,0.0586,0.0349,0.0412,0.0048,0.0035,0.0092,0.0092,0.009,0.0089,0.0095,0.0095,0.0095,0.0095,0,0.1234,0.1199,0.1302,0.1308,0.1234,0.1183,0.1122,0.1052,0.1118,0.1012,0.106,0.0941,0.0934,0.0726,0.0504,0.0462,0.0327,0.0271,0.0068,0.0065,0.0049,0.0045,0.0096,0.0096,0.0096,0.0096,0.0096,0,0.1103,0.1096,0.1188,0.1117,0.1127,0.1073,0.1069,0.1053,0.0969,0.0959,0.0898,0.0813,0.0737,0.0607,0.0449,0.0478,0.0322,0.0215,0.0212,0.0091,0.0094,0.0168,0.0121,0.0203,0.0204,0.0205,0.0205,0,0.0989,0.1014,0.101,0.0998,0.1025,0.096,0.0984,0.0908,0.085,0.0803,0.0721,0.0684,0.0564,0.0517,0.0438,0.0341,0.026,0.029,0.0179,0.0175,0.0176,0.0122,0.0172,0.0136,0.0216,0.0214,0.0214,0,0.0908,0.0874,0.086,0.0818,0.083,0.0798,0.0815,0.0795,0.0754,0.066,0.0686,0.0576,0.0494,0.0464,0.0405,0.0325,0.0279,0.0252,0.0248,0.0304,0.0213,0.0146,0.0133,0.0262,0.026,0.0259,0.0222,0,0.0768,0.074,0.0769,0.0731,0.073,0.0766,0.0696,0.0633,0.0595,0.0548,0.0515,0.0428,0.038,0.0354,0.0297,0.0271,0.0256,0.0237,0.0253,0.0216,0.0199,0.0193,0.0234,0.0232,0.023,0.0229,0,0,0.0669,0.07,0.0668,0.0642,0.0679,0.055,0.0586,0.0538,0.0466,0.0462,0.0407,0.034,0.0306,0.0319,0.0265,0.0252,0.0223,0.0281,0.021,0.0209,0.0207,0.0192,0.0188,0.0226,0.0225,0.0225,0.0224,0,0.0662,0.0641,0.0675,0.0637,0.055,0.0531,0.0517,0.0464,0.045,0.0409,0.0375,0.0313,0.0302,0.0278,0.0271,0.0235,0.0256,0.0224,0.0233,0.0199,0.02,0.02,0.0186,0.0184,0.022,0.0221,0.0221,0,0.0612,0.0585,0.0626,0.0553,0.0513,0.0501,0.0452,0.0428,0.0426,0.0368,0.0375,0.0326,0.029,0.028,0.0269,0.0263,0.0256,0.027,0.0273,0.0254,0.0218,0.0217,0.0216,0.0241,0.0242,0.0243,0,0,0.0579,0.063,0.0552,0.054,0.0522,0.0462,0.045,0.0402,0.0372,0.0354,0.0344,0.0308,0.0299,0.0291,0.0272,0.0275,0.0244,0.0283,0.0282,0.0282,0.0265,0.0227,0.0225,0.0247,0.0248,0.0248,0,0,0.0581,0.0586,0.0503,0.0515,0.0443,0.0423,0.0434,0.0393,0.0357,0.0346,0.0343,0.0339,0.0325,0.0294,0.0345,0.0307,0.0291,0.0283,0.0389,0.0387,0.0385,0.0378,0.039,0,0,0,0,0,0.0555,0.0592,0.0516,0.0505,0.0457,0.0437,0.0432,0.0393,0.0384,0.0368,0.0329,0.0369,0.0284,0.0331,0.034,0.0386,0.0303,0.0293,0.0284,0.0418,0.0415,0.0413,0,0,0,0,0,0,0.0551,0.0539,0.0517,0.0496,0.0484,0.0438,0.0417,0.0407,0.0382,0.0375,0.0371,0.037,0.037,0.0331,0.0338,0.0381,0.0388,0.0299,0.0291,0.0283,0.0417,0.0415,0.0413,0,0,0,0,0,0.0547,0.0538,0.0461,0.0496,0.0487,0.0437,0.0415,0.0407,0.0385,0.0384,0.038,0.0351,0.0371,0.0376,0.0336,0.0378,0.0383,0.0386,0.0293,0.0287,0.0281,0.0416,0,0,0,0,0,0,0.0545,0.0542,0.0459,0.0455,0.0477,0.0438,0.0428,0.0406,0.0396,0.0391,0.0367,0.0362,0.0373,0.0376,0.0379,0.0375,0.038,0.0382,0.0384,0.0288,0.0283,0.0279,0,0,0,0,0,0,0.0547,0.054,0.0457,0.0435,0.0429,0.0439,0.0429,0.0462,0.0398,0.0381,0.0375,0.0365,0.0376,0.0377,0.0379,0.0432,0.0377,0.0379,0.0381,0.0382,0.0284,0.028,0,0,0,0,0,0,0.0544,0.0538,0.0436,0.0431,0.0426,0.039,0.047,0.0428,0.0355,0.0384,0.0349,0.0346,0.0378,0.038,0.0379,0.0431,0.0432,0.0377,0.0378,0.038,0.038,0,0,0,0,0,0,0,0.0541,0.0585,0.0473,0.0428,0.0424,0.0425,0.0424,0.0424,0.0354,0.0352,0.0349,0.0347,0.0363,0.0365,0.0368,0.0431,0,0,0.0376,0.0378,0,0,0,0,0,0,0,0,0.0588,0.0586,0.0473,0.0472,0.0472,0.0425,0.0424,0.0424,0.0354,0.0352,0.035,0.0348,0.0363,0.0366,0.0368,0,0,0,0,0,0,0,0,0,0,0,0,0,0,0,0.0473,0.0472,0,0.0425,0.0424,0.0424,0.0353,0.0352,0.035,0.0349,0.0364,0.0366,0.0368,0,0,0,0,0,0,0,0,0,0,0,0,0,0,0,0,0,0,0,0,0,0,0,0,0,0,0,0,0,0,0,0,0,0,0,0,0,0,0,0,0,0,0,0,0,0,0,0,0,0,0,0,0,0,0,0,0,0,0,0,0,0,0,0,0,0,0,0,0]}]],[[{"header":{"parameterUnit":"kt","parameterCategory":2,"dx":1,"dy":1,"la1":30.253999710083008,"la2":30.299108505249023,"lo1":-89.0895004272461,"lo2":-89.04439544677734,"nx":28,"ny":28,"refTime":"2022-10-12T21:00:00:Z","depth":"4","parameterNumber":2,"parameterNumberName":"U-component_of_CURRENTS"},"data":[0.1637,0.1688,0.1673,0.1588,0.1573,0.1676,0.1848,0.2139,0.2183,0.2589,0.2651,0.2954,0.3078,0.3292,0.3243,0.3282,0.3185,0.3662,0.3653,0.3635,0.3655,0.3673,0.3588,0,0,0,0,0,0.1668,0.1689,0.1725,0.1739,0.1826,0.1912,0.2192,0.2414,0.2815,0.2858,0.3063,0.3188,0.3295,0.3405,0.3325,0.3593,0.3633,0.348,0.3444,0.3647,0.367,0.358,0,0,0,0,0,0,0.1729,0.1742,0.1819,0.1883,0.201,0.2079,0.2274,0.2513,0.2731,0.3215,0.3247,0.3523,0.379,0.3752,0.377,0.3758,0.3649,0.3479,0.3509,0.3532,0.3432,0.3239,0.3154,0,0,0,0,0,0.1786,0.1859,0.1916,0.1988,0.2159,0.2304,0.2571,0.2692,0.3091,0.3387,0.3552,0.3677,0.3825,0.3881,0.3939,0.3878,0.4025,0.3946,0.3954,0.3818,0.3699,0.3674,0.3672,0.3754,0.3757,0.3759,0.376,0,0.1878,0.1898,0.206,0.2124,0.2243,0.2456,0.261,0.2954,0.3132,0.355,0.3628,0.3951,0.4076,0.4039,0.4165,0.4124,0.4067,0.4007,0.3863,0.3733,0.3705,0.3697,0.3688,0.3778,0.3777,0.3775,0.3774,0,0.1947,0.2037,0.2117,0.2308,0.2388,0.2489,0.2863,0.3009,0.328,0.3528,0.3657,0.3927,0.4079,0.4187,0.4332,0.416,0.415,0.4083,0.4202,0.4186,0.373,0.3713,0.3808,0.3801,0.3796,0.3791,0.3787,0,0.2065,0.2145,0.2286,0.2337,0.2441,0.2651,0.2847,0.2978,0.326,0.3428,0.3643,0.3764,0.3968,0.4102,0.4095,0.4049,0.4224,0.3911,0.3891,0.4031,0.4013,0.402,0.3999,0.4197,0.4197,0.4197,0.4196,0,0.2096,0.2275,0.2323,0.2406,0.2594,0.27,0.2841,0.3041,0.318,0.3435,0.3582,0.3699,0.3849,0.392,0.4008,0.397,0.4163,0.41,0.3886,0.3867,0.401,0.399,0.4196,0.4196,0.4196,0.4196,0.4196,0,0.2213,0.2251,0.2352,0.2524,0.2586,0.2709,0.29,0.3021,0.3211,0.3318,0.3435,0.3546,0.3669,0.3659,0.379,0.3769,0.3809,0.3842,0.3845,0.3639,0.3551,0.3621,0.3798,0.3796,0.3793,0.3791,0.3788,0,0.2198,0.2278,0.2383,0.2527,0.2596,0.2762,0.2854,0.2986,0.3116,0.3248,0.3294,0.343,0.3375,0.3465,0.3528,0.3627,0.3676,0.3594,0.3723,0.3724,0.3503,0.3627,0.3722,0.3753,0.3758,0.3761,0.3763,0,0.2188,0.2315,0.2356,0.2422,0.2625,0.2684,0.2815,0.2929,0.3023,0.3131,0.3236,0.329,0.3337,0.3355,0.3359,0.3447,0.3608,0.3495,0.3499,0.3472,0.3818,0.3606,0.3605,0.3696,0.3701,0.3705,0.3739,0,0.2243,0.2316,0.235,0.2473,0.2554,0.2655,0.2783,0.2864,0.2961,0.3022,0.3131,0.3157,0.3219,0.3236,0.3241,0.3367,0.3353,0.3366,0.3308,0.3432,0.3422,0.3442,0.3187,0.3185,0.3184,0.3183,0,0,0.2249,0.228,0.2337,0.2415,0.2494,0.2592,0.2679,0.274,0.2853,0.2896,0.2924,0.3038,0.3056,0.3097,0.3146,0.3159,0.3211,0.3158,0.3364,0.3384,0.3402,0.34,0.342,0.318,0.318,0.3179,0.3179,0,0.2249,0.2307,0.2326,0.2408,0.2519,0.2558,0.261,0.2708,0.2751,0.287,0.2863,0.2924,0.3012,0.2997,0.3008,0.3134,0.3132,0.3172,0.3238,0.3348,0.337,0.3389,0.3391,0.341,0.3176,0.3176,0.3176,0,0.2285,0.2319,0.2332,0.2403,0.2449,0.2525,0.2526,0.2611,0.2676,0.266,0.2761,0.2788,0.2802,0.2874,0.2919,0.2887,0.3059,0.2996,0.3005,0.3011,0.3122,0.3147,0.317,0.2878,0.2877,0.2876,0,0,0.2302,0.2319,0.2398,0.2413,0.2461,0.2514,0.2543,0.2581,0.2629,0.2649,0.268,0.2728,0.2764,0.2798,0.2828,0.2912,0.2925,0.2959,0.2973,0.2985,0.2997,0.311,0.3134,0.2872,0.2872,0.2872,0,0,0.2295,0.2361,0.2389,0.2416,0.2469,0.2492,0.2515,0.2553,0.2599,0.2634,0.2621,0.2628,0.2725,0.2727,0.2674,0.2805,0.2749,0.2761,0.279,0.2808,0.2822,0.282,0.26,0,0,0,0,0,0.235,0.236,0.2386,0.24,0.2448,0.2492,0.2497,0.2506,0.2538,0.2552,0.2596,0.2567,0.2687,0.2639,0.265,0.2704,0.2819,0.2828,0.2837,0.2895,0.2914,0.293,0,0,0,0,0,0,0.2356,0.2369,0.2386,0.2414,0.2426,0.249,0.2466,0.2467,0.2533,0.2532,0.2561,0.2565,0.2534,0.2632,0.2642,0.2694,0.2596,0.2822,0.283,0.2838,0.2902,0.2917,0.293,0,0,0,0,0,0.236,0.2372,0.2448,0.2412,0.2423,0.245,0.2464,0.2465,0.2515,0.251,0.2515,0.2532,0.2533,0.2545,0.2638,0.269,0.2589,0.2593,0.2828,0.2834,0.284,0.2909,0,0,0,0,0,0,0.2364,0.2349,0.245,0.2454,0.2409,0.2445,0.245,0.2463,0.2489,0.2496,0.2474,0.2473,0.2533,0.2542,0.255,0.269,0.2583,0.2587,0.259,0.2832,0.2837,0.2842,0,0,0,0,0,0,0.2345,0.2352,0.2451,0.2447,0.2449,0.2442,0.2446,0.249,0.2491,0.2449,0.245,0.2474,0.2545,0.254,0.2547,0.2612,0.2579,0.2582,0.2585,0.2587,0.2836,0.284,0,0,0,0,0,0,0.2348,0.2354,0.2444,0.2447,0.2449,0.2483,0.248,0.2536,0.2466,0.2447,0.2465,0.2464,0.2546,0.2551,0.2545,0.2606,0.261,0.2579,0.2581,0.2583,0.2584,0,0,0,0,0,0,0,0.2351,0.2308,0.2442,0.2447,0.2448,0.2494,0.2494,0.2493,0.2466,0.2466,0.2465,0.2465,0.2557,0.2561,0.2566,0.2602,0,0,0.2578,0.258,0,0,0,0,0,0,0,0,0.2305,0.2307,0.2443,0.2444,0.2446,0.2494,0.2494,0.2493,0.2466,0.2466,0.2465,0.2465,0.2558,0.2562,0.2565,0,0,0,0,0,0,0,0,0,0,0,0,0,0,0,0.2443,0.2444,0,0.2494,0.2494,0.2493,0.2466,0.2466,0.2465,0.2465,0.2559,0.2562,0.2565,0,0,0,0,0,0,0,0,0,0,0,0,0,0,0,0,0,0,0,0,0,0,0,0,0,0,0,0,0,0,0,0,0,0,0,0,0,0,0,0,0,0,0,0,0,0,0,0,0,0,0,0,0,0,0,0,0,0,0,0,0,0,0,0,0,0,0,0,0]}],[{"header":{"parameterUnit":"kt","parameterCategory":2,"dx":1,"dy":1,"la1":30.253999710083008,"la2":30.299108505249023,"lo1":-89.0895004272461,"lo2":-89.04439544677734,"nx":28,"ny":28,"refTime":"2022-10-12T21:00:00:Z","depth":"4","parameterNumber":3,"parameterNumberName":"V-component_of_CURRENTS"},"data":[0.108,0.1185,0.1233,0.1356,0.1441,0.1614,0.1715,0.1771,0.1701,0.1693,0.1426,0.1348,0.0857,0.1108,0.0376,0.0284,0.0164,-0.03,-0.0307,-0.0456,-0.0448,-0.0441,-0.0306,0,0,0,0,0,0.1089,0.1144,0.1261,0.1395,0.1541,0.1646,0.179,0.1869,0.191,0.1791,0.175,0.1438,0.0939,0.0714,0.0394,0.0299,-0.0097,-0.0087,-0.0205,-0.0451,-0.0442,-0.0314,0,0,0,0,0,0,0.1095,0.1147,0.1277,0.1407,0.156,0.1679,0.1772,0.1811,0.1845,0.1773,0.1697,0.1366,0.118,0.0689,0.0351,0.0038,-0.0035,-0.0124,-0.0133,-0.0129,0.002,0.0148,-0.0007,0,0,0,0,0,0.1092,0.1166,0.125,0.1414,0.1553,0.1678,0.1807,0.1832,0.1865,0.187,0.1685,0.1415,0.1072,0.0652,0.0303,-0.0028,-0.0212,-0.0332,-0.0329,-0.0279,-0.0212,-0.0255,-0.0235,-0.041,-0.0409,-0.0408,-0.0408,0,0.107,0.114,0.1309,0.1388,0.1466,0.16,0.1689,0.1747,0.1778,0.1702,0.1675,0.1435,0.1255,0.068,0.0356,-0.0107,-0.016,-0.0308,-0.0254,-0.0196,-0.0246,-0.0227,-0.0209,-0.0401,-0.0402,-0.0402,-0.0403,0,0.1049,0.1137,0.1251,0.1379,0.1426,0.1506,0.1624,0.1674,0.166,0.1646,0.1637,0.1425,0.1129,0.0819,0.0424,0.023,-0.0076,-0.0179,0.0008,-0.0049,-0.0205,-0.019,-0.039,-0.0392,-0.0394,-0.0396,-0.0398,0,0.104,0.1115,0.1239,0.1292,0.1398,0.142,0.1511,0.1498,0.1491,0.1491,0.1369,0.1295,0.1,0.0775,0.0537,0.0212,0.0196,0.0012,-0.006,0.0086,0.0099,0.0046,0.0057,-0.0025,-0.0023,-0.0022,-0.002,0,0.0995,0.1091,0.1191,0.121,0.1272,0.1328,0.136,0.1336,0.1353,0.1291,0.127,0.1099,0.1017,0.079,0.053,0.0541,0.0202,0.0171,0.0005,0.0001,0.006,0.0067,-0.0018,-0.0018,-0.0018,-0.0017,-0.0016,0,0.0957,0.1026,0.1121,0.1195,0.1205,0.1242,0.1264,0.1273,0.1217,0.1187,0.1106,0.1024,0.0902,0.0841,0.0561,0.0627,0.0472,0.0337,0.0323,0.0286,0.0221,0.0212,0.0154,0.0157,0.0159,0.0161,0.0163,0,0.0905,0.1002,0.1018,0.1085,0.1116,0.1087,0.111,0.1091,0.1058,0.1034,0.0933,0.0904,0.0834,0.081,0.0705,0.0546,0.0454,0.0557,0.0277,0.0269,0.0265,0.0205,0.0418,0.0195,0.0191,0.0188,0.0186,0,0.0851,0.0933,0.0944,0.0977,0.0967,0.0976,0.0987,0.0978,0.0993,0.0928,0.0923,0.0845,0.0789,0.076,0.0689,0.06,0.0494,0.0545,0.0537,0.0469,0.0262,0.0245,0.0224,0.043,0.0427,0.0425,0.0208,0,0.0822,0.087,0.0896,0.0916,0.0915,0.0933,0.0897,0.0896,0.088,0.0852,0.0812,0.0735,0.0689,0.0651,0.0629,0.0565,0.0528,0.0491,0.0478,0.0464,0.0369,0.0352,0.0539,0.0538,0.0537,0.0536,0,0,0.0746,0.0811,0.0803,0.0829,0.0836,0.0787,0.0808,0.0798,0.0771,0.077,0.0755,0.0666,0.0628,0.0587,0.0591,0.0555,0.0488,0.058,0.0478,0.0472,0.0466,0.0375,0.036,0.0535,0.0535,0.0534,0.0534,0,0.0731,0.0751,0.0796,0.0788,0.0782,0.0762,0.0768,0.0741,0.0748,0.0735,0.0696,0.0654,0.0617,0.0579,0.0557,0.0547,0.0483,0.053,0.0581,0.0474,0.0469,0.0464,0.0375,0.0361,0.0532,0.0532,0.0533,0,0.0668,0.0686,0.0708,0.0718,0.0711,0.0713,0.0688,0.07,0.0711,0.066,0.0676,0.0627,0.0583,0.0561,0.055,0.0545,0.0471,0.0518,0.052,0.0548,0.0437,0.0432,0.0427,0.0487,0.0487,0.0487,0,0,0.0646,0.0692,0.0665,0.0706,0.07,0.068,0.0684,0.0678,0.0666,0.067,0.0648,0.0619,0.0589,0.058,0.0549,0.0526,0.0471,0.0515,0.0518,0.052,0.0548,0.0439,0.0434,0.0488,0.0488,0.0488,0,0,0.0629,0.064,0.0629,0.0676,0.0661,0.0642,0.0666,0.0655,0.0654,0.0662,0.0631,0.0625,0.0609,0.0583,0.0596,0.0549,0.0535,0.0532,0.058,0.0582,0.0584,0.0629,0.0579,0,0,0,0,0,0.0588,0.0633,0.0624,0.0628,0.0641,0.0636,0.0636,0.0644,0.0649,0.0666,0.0648,0.0636,0.0582,0.0593,0.0585,0.0584,0.0497,0.0496,0.0494,0.055,0.0552,0.0555,0,0,0,0,0,0,0.0589,0.0595,0.0622,0.0605,0.0608,0.0635,0.0631,0.0633,0.0649,0.0653,0.0638,0.0634,0.0613,0.0596,0.0589,0.0588,0.0581,0.0497,0.0495,0.0494,0.0551,0.0553,0.0555,0,0,0,0,0,0.059,0.0595,0.0624,0.0604,0.0606,0.0614,0.0632,0.0634,0.0654,0.0621,0.062,0.0665,0.0613,0.0607,0.0591,0.0593,0.0586,0.0583,0.0496,0.0495,0.0494,0.0552,0,0,0,0,0,0,0.0591,0.059,0.0624,0.0623,0.0616,0.0614,0.0618,0.0635,0.0622,0.0621,0.0644,0.0646,0.0612,0.0607,0.0602,0.0596,0.059,0.0587,0.0586,0.0495,0.0494,0.0493,0,0,0,0,0,0,0.0587,0.059,0.0623,0.0638,0.0639,0.0614,0.0618,0.0585,0.0621,0.0645,0.0648,0.0645,0.0612,0.0608,0.0604,0.0553,0.0593,0.0591,0.0589,0.0588,0.0494,0.0493,0,0,0,0,0,0,0.0588,0.059,0.0638,0.0639,0.064,0.0634,0.0583,0.0595,0.0646,0.0645,0.065,0.0651,0.0611,0.0608,0.0605,0.0556,0.0554,0.0593,0.0591,0.059,0.0589,0,0,0,0,0,0,0,0.0588,0.0581,0.0627,0.064,0.0641,0.0616,0.0616,0.0616,0.0647,0.0648,0.0649,0.0651,0.0608,0.0605,0.0602,0.0558,0,0,0.0593,0.0592,0,0,0,0,0,0,0,0,0.0579,0.058,0.0627,0.0627,0.0626,0.0616,0.0616,0.0616,0.0647,0.0648,0.0649,0.065,0.0607,0.0605,0.0603,0,0,0,0,0,0,0,0,0,0,0,0,0,0,0,0.0627,0.0627,0,0.0616,0.0616,0.0616,0.0647,0.0648,0.0649,0.065,0.0607,0.0605,0.0603,0,0,0,0,0,0,0,0,0,0,0,0,0,0,0,0,0,0,0,0,0,0,0,0,0,0,0,0,0,0,0,0,0,0,0,0,0,0,0,0,0,0,0,0,0,0,0,0,0,0,0,0,0,0,0,0,0,0,0,0,0,0,0,0,0,0,0,0,0]}]]]